| time (UTC) | temp F | wind direction | speed knots | gust knots | rain 1hr in | rain 24hr in | rain mn in | humidity % | barometer mb |
| 20260505091536 | 61 | 261 | 1.7 | 7.8 | 0.00 | 0.00 | 0.00 | 71 | 1015.1 |
| 20260505090042 | 61 | 243 | 1.7 | 5.2 | 0.00 | 0.00 | 0.00 | 71 | 1015.0 |
| 20260505084533 | 61 | 207 | 0.9 | 4.3 | 0.00 | 0.00 | 0.00 | 70 | 1015.0 |
| 20260505083030 | 62 | 177 | 1.7 | 7.0 | 0.00 | 0.00 | 0.00 | 69 | 1014.9 |
| 20260505081535 | 62 | 253 | 2.6 | 7.0 | 0.00 | 0.00 | 0.00 | 69 | 1014.8 |
| 20260505080037 | 62 | 246 | 2.6 | 8.7 | 0.00 | 0.00 | 0.00 | 69 | 1014.8 |
| 20260505074503 | 63 | 244 | 1.7 | 7.8 | 0.00 | 0.00 | 0.00 | 68 | 1014.8 |
| 20260505073002 | 63 | 231 | 1.7 | 5.2 | 0.00 | 0.00 | 0.00 | 68 | 1014.8 |
| 20260505071501 | 63 | 236 | 2.6 | 8.7 | 0.00 | 0.00 | 0.00 | 68 | 1014.6 |
| 20260505070058 | 63 | 244 | 1.7 | 5.2 | 0.00 | 0.00 | 0.00 | 67 | 1014.5 |
| 20260505064556 | 63 | 229 | 0.9 | 8.7 | 0.00 | 0.00 | 0.00 | 66 | 1014.6 |
| 20260505063055 | 64 | 176 | 2.6 | 6.1 | 0.00 | 0.00 | 0.00 | 65 | 1014.5 |
| 20260505061557 | 64 | 250 | 1.7 | 8.7 | 0.00 | 0.00 | 0.00 | 65 | 1014.6 |
| 20260505060052 | 64 | 250 | 2.6 | 10.4 | 0.00 | 0.00 | 0.00 | 64 | 1014.6 |
| 20260505054609 | 64 | 215 | 4.3 | 8.7 | 0.00 | 0.00 | 0.00 | 64 | 1014.7 |
| 20260505053100 | 64 | 196 | 2.6 | 7.8 | 0.00 | 0.00 | 0.00 | 65 | 1014.9 |
| 20260505051546 | 65 | 250 | 1.7 | 9.6 | 0.00 | 0.00 | 0.00 | 65 | 1014.8 |
| 20260505041514 | 65 | 250 | 2.6 | 8.7 | 0.00 | 0.00 | 0.00 | 64 | 1014.8 |
| 20260505040009 | 66 | 190 | 1.7 | 8.7 | 0.00 | 0.00 | 0.00 | 64 | 1014.8 |
| 20260505034510 | 66 | 45 | 2.6 | 9.6 | 0.00 | 0.00 | 0.00 | 63 | 1014.6 |
| 20260505033008 | 66 | 290 | 2.6 | 9.6 | 0.00 | 0.00 | 0.00 | 64 | 1014.5 |
| 20260505031542 | 66 | 222 | 1.7 | 9.6 | 0.00 | 0.00 | 0.00 | 63 | 1014.6 |
| 20260505030147 | 66 | 248 | 1.7 | 11.3 | 0.00 | 0.00 | 0.00 | 64 | 1014.5 |
| 20260505023029 | 67 | 179 | 1.7 | 8.7 | 0.00 | 0.00 | 0.00 | 64 | 1014.6 |
| 20260505021536 | 67 | 132 | 3.5 | 9.6 | 0.00 | 0.00 | 0.00 | 64 | 1014.5 |
| 20260505020144 | 68 | 317 | 2.6 | 10.4 | 0.00 | 0.00 | 0.00 | 64 | 1014.4 |
| 20260505014611 | 68 | 136 | 4.3 | 16.5 | 0.00 | 0.00 | 0.00 | 63 | 1014.4 |
| 20260505013113 | 68 | 217 | 0.9 | 10.4 | 0.00 | 0.00 | 0.00 | 63 | 1014.2 |
| 20260505011535 | 69 | 250 | 2.6 | 7.8 | 0.00 | 0.00 | 0.00 | 62 | 1014.1 |
| 20260505010025 | 69 | 171 | 2.6 | 10.4 | 0.00 | 0.00 | 0.00 | 62 | 1013.8 |
| 20260505003023 | 70 | 156 | 2.6 | 11.3 | 0.00 | 0.00 | 0.00 | 59 | 1013.4 |
| 20260505001519 | 71 | 217 | 3.5 | 10.4 | 0.00 | 0.00 | 0.00 | 59 | 1013.3 |
| 20260505000118 | 71 | 196 | 0.9 | 6.1 | 0.00 | 0.00 | 0.00 | 56 | 1013.1 |
| 20260504234609 | 73 | 192 | 3.5 | 10.4 | 0.00 | 0.00 | 0.00 | 53 | 1013.0 |
| 20260504233031 | 75 | 154 | 3.5 | 7.8 | 0.00 | 0.00 | 0.00 | 48 | 1012.7 |
| 20260504230009 | 76 | 169 | 0.9 | 8.7 | 0.00 | 0.00 | 0.00 | 39 | 1012.4 |
| 20260504223007 | 78 | 268 | 3.5 | 8.7 | 0.00 | 0.00 | 0.00 | 36 | 1012.3 |
| 20260504214542 | 79 | 244 | 3.5 | 9.6 | 0.00 | 0.00 | 0.00 | 36 | 1012.3 |
| 20260504211635 | 80 | 229 | 2.6 | 10.4 | 0.00 | 0.00 | 0.00 | 36 | 1012.6 |
| 20260504210145 | 80 | 163 | 2.6 | 16.5 | 0.00 | 0.00 | 0.00 | 34 | 1012.6 |
| 20260504204555 | 80 | 194 | 4.3 | 10.4 | 0.00 | 0.00 | 0.00 | 35 | 1012.7 |
| 20260504203028 | 80 | 240 | 6.1 | 12.2 | 0.00 | 0.00 | 0.00 | 35 | 1012.7 |
| 20260504193131 | 79 | 257 | 7.0 | 15.6 | 0.00 | 0.00 | 0.00 | 35 | 1013.2 |
| 20260504191540 | 79 | 82 | 3.5 | 12.2 | 0.00 | 0.00 | 0.00 | 35 | 1013.2 |
| 20260504190032 | 79 | 229 | 5.2 | 13.0 | 0.00 | 0.00 | 0.00 | 36 | 1013.6 |
| 20260504184639 | 79 | 236 | 5.2 | 9.6 | 0.00 | 0.00 | 0.00 | 36 | 1013.7 |